Regional Weather Roundup
Issued by NWS

Home | Current Version | Previous Version | Graphics & Text | Print | Product List | Glossary On
Versions: 1 2 3 4 5 6 7 8 9 10 11 12 13 14 15 16 17 18 19 20 21 22 23 24 25 26 27 28 29 30 31 32 33 34 35 36 37 38 39 40 41 42 43 44 45 46 47 48 49 50
000
ASUS43 KDMX 231807
RWRIA

WEATHER ROUNDUP FOR IOWA
NATIONAL WEATHER SERVICE DES MOINES IA
100 PM CDT SAT AUG 23 2014

NOTE: "FAIR" INDICATES FEW OR NO CLOUDS BELOW 12,000 FEET WITH NO
SIGNIFICANT WEATHER AND/OR OBSTRUCTIONS TO VISIBILITY.

* - THESE STATIONS ARE NOT NWS STATIONS...THUS NOT UNDER NWS
QUALITY CONTROL.  THEY ALSO DO NOT REPORT WEATHER SUCH
AS PRECIPITATION OR FOG.

IAZ001>003-012>014-020>022-031>034-043>046-231900-
   NORTHWEST IOWA

CITY           SKY/WX    TMP DP  RH WIND       PRES   REMARKS
CARROLL *      SUNNY     77  72  83 SE10      29.90S
CHEROKEE *     CLOUDY    79  73  83 SE10      29.91S HX  82
DENISON *      SUNNY     79  73  83 SE8       29.88F HX  82
LE MARS *      PTSUNNY   81  72  74 SE13      29.88F HX  84
ORANGE CITY *  MOSUNNY   81  70  69 SE12      29.89F HX  84
SHELDON *      SUNNY     79  73  83 SE12G18   29.89S HX  82
SIOUX CITY     CLOUDY    80  71  74 SE10      29.87F HX  84
6HR MIN TEMP:  70; 6HR MAX TEMP:  80;

SPENCER        PTSUNNY   79  72  79 SE12      29.91S HX  82
6HR MIN TEMP:  70; 6HR MAX TEMP:  79; 6HR PCP: TRACE;

STORM LAKE *   MOSUNNY   77  75  94 SE15      29.92S
$$

IAZ055>058-069>071-079>083-090>094-231900-
   SOUTHWEST IOWA

CITY           SKY/WX    TMP DP  RH WIND       PRES   REMARKS
ATLANTIC *     PTSUNNY   81  75  83 S9        29.89R HX  86
AUDUBON *      SUNNY     82  75  78 S9        29.91S HX  89
CLARINDA *     SUNNY     86  77  74 S10G16    29.88S HX  97
COUNCIL BLFS * MOSUNNY   82  79  89 SE9       29.86F HX  93
CRESTON *      MOSUNNY   81  75  83 SE14      29.90F HX  86
HARLAN  *      CLOUDY    81  75  83 S7        29.93S HX  86
LAMONI         PTSUNNY   83  76  79 SE8       29.91F HX  91
6HR MIN TEMP:  71; 6HR MAX TEMP:  83; 6HR PCP:  0.05;

RED OAK *      MOSUNNY   84  77  79 S12       29.88R HX  94
SHENANDOAH *   MOSUNNY   86  75  70 SE13      29.87F HX  95
$$

IAZ047>049-059>061-072>074-084-231900-
   CENTRAL IOWA

CITY           SKY/WX    TMP DP  RH WIND       PRES   REMARKS
AMES           CLOUDY    78  73  84 SE7       29.92R HX  81
6HR MIN TEMP:  71; 6HR MAX TEMP:  78; 6HR PCP:  0.18;

ANKENY *       CLOUDY    82  73  74 SE9       29.90R HX  88
CHARITON *     SUNNY     82  73  74 SE8       29.92F HX  88
DES MOINES     CLOUDY    82  70  66 SE14      29.90R HX  86
6HR MIN TEMP:  72; 6HR MAX TEMP:  82; 6HR PCP:  0.02;

GRINNELL*      CLOUDY    79  70  73 SE9       29.93S HX  81
KNOXVILLE *    SUNNY     79  72  78 SE9       29.91F HX  82
MARSHALLTOWN   CLOUDY    75  71  87 E10       29.94R
6HR MIN TEMP:  70; 6HR MAX TEMP:  75; 6HR PCP:  0.53;

PELLA *        CLOUDY    80  73  79 SE9       29.92F HX  85
PERRY *          N/A     79  72  78 SE6       29.91S HX  82
$$

IAZ004>006-015-016-023>025-035-036-231900-
   NORTH CENTRAL IOWA

CITY           SKY/WX    TMP DP  RH WIND       PRES   REMARKS
ALGONA *       MOSUNNY   79  72  78 S12       29.92S HX  82
CLARION *      MOSUNNY   79  72  78 SE8       29.93R HX  82
ESTHERVILLE    PTSUNNY   78  71  79 SE9       29.91S HX  80
6HR MIN TEMP:  68; 6HR MAX TEMP:  78; 6HR PCP:  0.06;

FORT DODGE *   PTSUNNY   79  72  78 S10       29.92S HX  82
MASON CITY     CLOUDY    77  71  82 SE8       29.94S
6HR MIN TEMP:  69; 6HR MAX TEMP:  77; 6HR PCP:  1.81;

FOREST CITY *  SUNNY     79  72  78 SE7       29.92S HX  82
IOWA FALLS *     N/A     75  70  84 E9        29.94R
$$

IAZ007>011-017>019-026>030-037>042-050>054-066-231900-
   NORTHEAST IOWA

CITY           SKY/WX    TMP DP  RH WIND       PRES   REMARKS
CEDAR RAPIDS   CLOUDY    74  72  93 E6        29.94F
6HR MIN TEMP:  71; 6HR MAX TEMP:  74; 6HR PCP:  0.24;

CHARLES CITY * SUNNY     75  72  88 CALM      29.95S
CLINTON *      CLOUDY    70  70 100 E10       29.97F
DECORAH *      SUNNY     72  70  94 E12       29.93F
DUBUQUE        CLOUDY    72  72 100 NE12      29.93F
6HR MIN TEMP:  71; 6HR MAX TEMP:  75;

MONTICELLO *   SUNNY     73  73 100 S6        29.95R
OELWEIN *      SUNNY     75  72  88 E10       29.94F
WATERLOO       CLOUDY    76  71  85 E12       29.91F
6HR MIN TEMP:  72; 6HR MAX TEMP:  76; 6HR PCP:  0.16;

$$

IAZ064-065-067-068-078-231900-
   EAST CENTRAL IOWA

CITY           SKY/WX    TMP DP  RH WIND       PRES   REMARKS
DAVENPORT      CLOUDY    71  69  93 SE8       29.97F
6HR MIN TEMP:  71; 6HR MAX TEMP:  76; 6HR PCP:  1.15;

IOWA CITY      CLOUDY    74  74 100 E5        29.97F
6HR MIN TEMP:  71; 6HR MAX TEMP:  75; 6HR PCP:  1.09;

MT. PLEASANT * CLOUDY    77  73  88 E7        29.95F
MUSCATINE *    MOSUNNY   73  72  94 E9        29.96S
QUAD CITIES    CLOUDY    72  69  90 E10       29.96F
6HR MIN TEMP:  71; 6HR MAX TEMP:  77; 6HR PCP:  0.45;

$$

IAZ062-063-075>077-085>089-095>099-231900-
   SOUTHEAST IOWA

CITY           SKY/WX    TMP DP  RH WIND       PRES   REMARKS
BURLINGTON     CLOUDY    76  73  91 E8        29.96R
6HR MIN TEMP:  72; 6HR MAX TEMP:  77;

FAIRFIELD *    SUNNY     75  72  88 E8        29.95R
FORT MADISON * SUNNY     81  77  89 E8        29.96S HX  88
KEOKUK *       SUNNY     82  75  78 VRB6      29.94F HX  89
OSKALOOSA *      N/A     78  72  82 E6        29.94S
CENTERVILLE *  SUNNY     82  77  83 SE5       29.95S HX  91
OTTUMWA        CLOUDY    77  71  82 E8        29.94R
6HR MIN TEMP:  70; 6HR MAX TEMP:  77; 6HR PCP:  1.11;

WASHINGTON *   MOSUNNY   75  73  94 E10G16    29.95R
$$

ABBREVIATIONS USED IN REMARKS
   TC - TEMPERATURES IN CELSIUS
  WCI - WIND CHILL INDEX
   HX - HEAT INDEX
  VSB - VISIBILITY
$$




USA.gov is the U.S. government's official web portal to all federal, state and local government web resources and services.